Terminal Aerodrome Forecast
Issued by NWS

Home | Current Version | Previous Version | Text Only | Print | Product List | Glossary On
Versions: 1 2 3 4 5 6 7 8 9 10 11 12 13 14 15 16 17 18 19
000
FTUS43 KAPX 070540
TAFPLN
TAF
KPLN 070540Z 0706/0806 00000KT P6SM SCT250
     FM070800 00000KT 4SM BR SCT002 BKN250
     FM071230 00000KT P6SM SCT250
     FM071400 17008KT P6SM SCT250
     FM071700 15010G17KT P6SM SCT070
     FM080100 15006KT P6SM BKN070
     FM080300 16005KT P6SM BKN060 WS020/19035KT=

USA.gov is the U.S. government's official web portal to all federal, state and local government web resources and services.